Port Huron, MI

5:37 AM EDT on August 24, 2019 (GMT -0400)
Saint Clair County International

Weather History for KPHN - June, 2019

Change the Weather History Date:

Saturday, June 8, 2019

  Actual Average (KMTC) Record (KMTC)
Temperature  
Mean Temperature 66 °F -  
Max Temperature 82 °F 76 °F 95 °F (2011)
Min Temperature 51 °F 54 °F 37 °F (1949)
Cooling Degree Days 2    
Growing Degree Days 16 (Base 50)    
Moisture  
Dew Point 48 °F    
Average Humidity 54    
Maximum Humidity 88    
Minimum Humidity 23    
Precipitation  
Precipitation 0.00 in - - ()
Sea Level Pressure  
Sea Level Pressure 30.11 in    
Wind  
Wind Speed 4 mph (East)    
Max Wind Speed 17 mph    
Max Gust Speed 22 mph    
Visibility 10 miles    
Events      
Averages and records for this station are not official NWS values.
T = Trace of Precipitation, MM = Missing Value Source: NWS Daily Summary

Daily Weather History Graph

Daily Weather History Graph

Search for Another Location

Airport or City:

Astronomy

Jun. 08, 2019 Rise Set
Actual Time 5:51 AM EDT 9:07 PM EDT
Civil Twilight 5:16 AM EDT 9:42 PM EDT
Nautical Twilight 4:31 AM EDT 10:27 PM EDT
Astronomical Twilight 3:36 AM EDT 11:22 PM EDT
Moon 11:21 AM EDT (6/8) 1:05 AM EDT (6/8)
Length of Visible Light 16h 25m
Length of Day
15h 15m
Waxing Crescent, 32% of the Moon is Illuminated
Jun 8
Waxing Crescent
Jun 10
First Quarter
Jun 17
Full
Jun 25
Last Quarter
Jul 2
New

Hourly Weather History & Observations

Time (EDT) Temp. Dew Point Humidity Pressure Visibility Wind Dir Wind Speed Gust Speed Precip Events Conditions
12:16 AM 55.4 °F 44.6 °F 67% 30.08 in 10.0 mi Calm Calm - N/A   Clear
12:35 AM 55.4 °F 46.4 °F 72% 30.08 in 10.0 mi Calm Calm - N/A   Clear
12:55 AM 55.4 °F 46.4 °F 72% 30.08 in 10.0 mi North 3.5 mph - N/A   Clear
12:56 AM 55.4 °F 46.4 °F 72% 30.08 in 10.0 mi North 3.5 mph - N/A   Clear
1:19 AM 55.4 °F 46.4 °F 72% 30.08 in 10.0 mi Calm Calm - N/A   Clear
1:37 AM 55.4 °F 48.2 °F 77% 30.07 in 10.0 mi Calm Calm - N/A   Clear
1:55 AM 55.4 °F 48.2 °F 77% 30.08 in 10.0 mi Calm Calm - N/A   Clear
1:56 AM 55.4 °F 48.2 °F 77% 30.08 in 10.0 mi Calm Calm - N/A   Clear
2:15 AM 55.4 °F 48.2 °F 77% 30.08 in 10.0 mi Calm Calm - N/A   Clear
2:16 AM 55.4 °F 48.2 °F 77% 30.08 in 10.0 mi Calm Calm - N/A   Clear
2:58 AM 53.6 °F 48.2 °F 82% 30.09 in 10.0 mi Calm Calm - N/A   Clear
3:16 AM 53.6 °F 48.2 °F 82% 30.09 in 10.0 mi Calm Calm - N/A   Clear
3:35 AM 53.6 °F 48.2 °F 82% 30.09 in 10.0 mi Calm Calm - N/A   Clear
3:36 AM 53.6 °F 48.2 °F 82% 30.09 in 10.0 mi Calm Calm - N/A   Clear
3:55 AM 53.6 °F 48.2 °F 82% 30.09 in 10.0 mi Calm Calm - N/A   Clear
4:19 AM 51.8 °F 48.2 °F 88% 30.09 in 10.0 mi Calm Calm - N/A   Clear
4:37 AM 51.8 °F 48.2 °F 88% 30.09 in 10.0 mi Calm Calm - N/A   Clear
4:55 AM 51.8 °F 48.2 °F 88% 30.09 in 10.0 mi Calm Calm - N/A   Clear
4:56 AM 51.8 °F 48.2 °F 88% 30.09 in 10.0 mi Calm Calm - N/A   Clear
5:35 AM 51.8 °F 48.2 °F 88% 30.09 in 10.0 mi Calm Calm - N/A   Clear
5:40 AM 51.8 °F 48.2 °F 88% 30.09 in 10.0 mi Calm Calm - N/A   Clear
5:58 AM 51.8 °F 48.2 °F 88% 30.10 in 10.0 mi Calm Calm - N/A   Clear
6:16 AM 51.8 °F 48.2 °F 88% 30.10 in 10.0 mi Calm Calm - N/A   Clear
6:35 AM 53.6 °F 48.2 °F 82% 30.10 in 10.0 mi Calm Calm - N/A   Clear
6:55 AM 53.6 °F 50.0 °F 88% 30.11 in 10.0 mi NE 3.5 mph - N/A   Clear
7:19 AM 57.2 °F 51.8 °F 82% 30.11 in 10.0 mi NE 3.5 mph - N/A   Clear
7:37 AM 60.8 °F 51.8 °F 72% 30.12 in 10.0 mi ENE 5.8 mph - N/A   Clear
7:55 AM 62.6 °F 51.8 °F 68% 30.12 in 10.0 mi ENE 4.6 mph - N/A   Clear
8:15 AM 64.4 °F 50.0 °F 59% 30.12 in 10.0 mi East 6.9 mph - N/A   Clear
8:35 AM 66.2 °F 50.0 °F 56% 30.13 in 10.0 mi ENE 8.1 mph - N/A   Clear
8:40 AM 66.2 °F 50.0 °F 56% 30.13 in 10.0 mi ENE 6.9 mph - N/A   Clear
9:16 AM 69.8 °F 50.0 °F 49% 30.14 in 10.0 mi ENE 8.1 mph - N/A   Clear
9:35 AM 71.6 °F 50.0 °F 46% 30.14 in 10.0 mi East 6.9 mph - N/A   Clear
9:36 AM 71.6 °F 50.0 °F 46% 30.14 in 10.0 mi ENE 6.9 mph - N/A   Clear
9:55 AM 73.4 °F 50.0 °F 44% 30.14 in 10.0 mi East 6.9 mph - N/A   Clear
9:56 AM 73.4 °F 50.0 °F 44% 30.14 in 10.0 mi East 8.1 mph - N/A   Clear
10:19 AM 75.2 °F 50.0 °F 41% 30.14 in 10.0 mi ESE 9.2 mph - N/A   Clear
10:37 AM 75.2 °F 50.0 °F 41% 30.14 in 10.0 mi ESE 6.9 mph - N/A   Clear
10:56 AM 77.0 °F 50.0 °F 39% 30.14 in 10.0 mi ESE 13.8 mph 17.3 mph N/A   Clear
11:15 AM 77.0 °F 46.4 °F 34% 30.14 in 10.0 mi ESE 15.0 mph 19.6 mph N/A   Clear
11:16 AM 77.0 °F 46.4 °F 34% 30.14 in 10.0 mi ESE 13.8 mph 19.6 mph N/A   Clear
11:35 AM 77.0 °F 46.4 °F 34% 30.14 in 10.0 mi ESE 10.4 mph - N/A   Clear
11:58 AM 78.8 °F 44.6 °F 30% 30.14 in 10.0 mi East 15.0 mph 19.6 mph N/A   Clear
12:16 PM 78.8 °F 44.6 °F 30% 30.13 in 10.0 mi ESE 10.4 mph 18.4 mph N/A   Clear
12:35 PM 78.8 °F 42.8 °F 28% 30.13 in 10.0 mi SE 12.7 mph 16.1 mph N/A   Clear
12:55 PM 78.8 °F 41.0 °F 26% 30.13 in 10.0 mi ESE 12.7 mph 16.1 mph N/A   Clear
1:19 PM 80.6 °F 41.0 °F 24% 30.13 in 10.0 mi East 16.1 mph 21.9 mph N/A   Clear
1:37 PM 80.6 °F 41.0 °F 24% 30.13 in 10.0 mi ESE 12.7 mph 20.7 mph N/A   Clear
1:55 PM 80.6 °F 42.8 °F 26% 30.13 in 10.0 mi East 15.0 mph 18.4 mph N/A   Clear
2:15 PM 80.6 °F 42.8 °F 26% 30.12 in 10.0 mi East 15.0 mph 19.6 mph N/A   Clear
2:35 PM 80.6 °F 42.8 °F 26% 30.11 in 10.0 mi ESE 13.8 mph 18.4 mph N/A   Clear
2:39 PM 80.6 °F 42.8 °F 26% 30.11 in 10.0 mi ESE 15.0 mph - N/A   Clear
2:58 PM 82.4 °F 41.0 °F 23% 30.11 in 10.0 mi ESE 13.8 mph 19.6 mph N/A   Clear
3:16 PM 82.4 °F 41.0 °F 23% 30.11 in 10.0 mi ESE 17.3 mph 20.7 mph N/A   Clear
3:55 PM 82.4 °F 42.8 °F 25% 30.11 in 10.0 mi SE 12.7 mph - N/A   Clear
4:19 PM 82.4 °F 41.0 °F 23% 30.10 in 10.0 mi ESE 11.5 mph 17.3 mph N/A   Clear
4:37 PM 82.4 °F 44.6 °F 26% 30.10 in 10.0 mi East 11.5 mph - N/A   Clear
4:55 PM 82.4 °F 48.2 °F 30% 30.10 in 10.0 mi NE 9.2 mph - N/A   Clear
5:15 PM 80.6 °F 50.0 °F 34% 30.09 in 10.0 mi NNE 6.9 mph - N/A   Clear
5:35 PM 78.8 °F 50.0 °F 36% 30.09 in 10.0 mi NNE 5.8 mph - N/A   Clear
5:58 PM 78.8 °F 48.2 °F 34% 30.09 in 10.0 mi NE 6.9 mph - N/A   Clear
6:16 PM 78.8 °F 50.0 °F 36% 30.09 in 10.0 mi NE 8.1 mph - N/A   Clear
6:35 PM 77.0 °F 51.8 °F 41% 30.09 in 10.0 mi NE 4.6 mph - N/A   Clear
6:55 PM 73.4 °F 51.8 °F 47% 30.09 in 10.0 mi NNE 4.6 mph - N/A   Clear
6:56 PM 73.4 °F 51.8 °F 47% 30.10 in 10.0 mi North 4.6 mph - N/A   Clear
7:19 PM 71.6 °F 51.8 °F 50% 30.09 in 10.0 mi NNE 4.6 mph - N/A   Clear
7:37 PM 69.8 °F 51.8 °F 53% 30.09 in 10.0 mi Calm Calm - N/A   Clear
7:55 PM 69.8 °F 51.8 °F 53% 30.09 in 10.0 mi Calm Calm - N/A   Clear
8:15 PM 68.0 °F 53.6 °F 60% 30.10 in 10.0 mi Calm Calm - N/A   Clear
8:35 PM 68.0 °F 53.6 °F 60% 30.09 in 10.0 mi Calm Calm - N/A   Clear
8:40 PM 66.2 °F 53.6 °F 64% 30.09 in 10.0 mi Calm Calm - N/A   Clear
8:58 PM 66.2 °F 53.6 °F 64% 30.09 in 10.0 mi Calm Calm - N/A   Clear
9:16 PM 64.4 °F 53.6 °F 68% 30.09 in 10.0 mi ENE 3.5 mph - N/A   Clear
9:35 PM 64.4 °F 53.6 °F 68% 30.10 in 10.0 mi East 6.9 mph - N/A   Clear
9:55 PM 68.0 °F 50.0 °F 52% 30.10 in 10.0 mi East 8.1 mph - N/A   Clear
9:56 PM 68.0 °F 50.0 °F 52% 30.10 in 10.0 mi East 6.9 mph - N/A   Clear
10:19 PM 68.0 °F 48.2 °F 49% 30.10 in 10.0 mi East 6.9 mph - N/A   Clear
10:37 PM 69.8 °F 44.6 °F 40% 30.10 in 10.0 mi East 8.1 mph - N/A   Clear
10:55 PM 68.0 °F 42.8 °F 40% 30.10 in 10.0 mi East 5.8 mph - N/A   Clear
11:16 PM 68.0 °F 42.8 °F 40% 30.10 in 10.0 mi East 6.9 mph - N/A   Clear
11:35 PM 66.2 °F 42.8 °F 43% 30.10 in 10.0 mi East 6.9 mph - N/A   Clear
11:40 PM 66.2 °F 42.8 °F 43% 30.10 in 10.0 mi East 6.9 mph - N/A   Clear
11:58 PM 68.0 °F 41.0 °F 37% 30.10 in 10.0 mi East 10.4 mph 16.1 mph N/A   Clear